Weather reports worldwide

Advertisment
Chadron, ne, United States of America (2074327): temperature & dewpoint: 10.07.2019 23:00:00 - 16.07.2019 23:00:00 (MDT)Chadron, ne, United States of America (2074327): wind speed & gusts: 10.07.2019 23:00:00 - 16.07.2019 23:00:00 (MDT)Chadron, ne, United States of America (2074327): wind direction: 10.07.2019 23:00:00 - 16.07.2019 23:00:00 (MDT)Chadron, ne, United States of America (2074327): reduced air pressure: 10.07.2019 23:00:00 - 16.07.2019 23:00:00 (MDT)Chadron, ne, United States of America (2074327): visibility: 10.07.2019 23:00:00 - 16.07.2019 23:00:00 (MDT)Chadron, ne, United States of America (2074327): precipitation: 10.07.2019 23:00:00 - 16.07.2019 23:00:00 (MDT)
Date & Time tt [°C] td [°C] ff [km/h] ff [kn] fx [km/h] fx [kn] dd ppp [hPa] vv [km] rr [mm]
16.07.2019 23:00:00 18,3 15,0 8 4 - - NE 1007,5 16 -
16.07.2019 22:00:00 20,6 14,4 16 9 - - ENE 1008,3 16 -
16.07.2019 21:00:00 20,6 14,4 21 11 - - NE 1008,6 16 -
16.07.2019 20:00:00 27,8 18,9 18 10 - - ENE 1007,7 16 -
16.07.2019 19:00:00 27,8 19,4 13 7 - - N 1007,5 16 -
16.07.2019 18:00:00 30,0 18,9 13 7 - - ESE 1007,4 16 -
16.07.2019 17:00:00 31,1 18,9 21 11 - - SE 1007,5 16 -
16.07.2019 16:00:00 32,8 18,3 18 10 - - SE 1008,0 16 -
16.07.2019 15:00:00 31,7 18,3 11 6 - - SSE 1008,9 16 -
16.07.2019 14:00:00 31,1 17,8 22 12 - - SSW 1009,6 16 -
16.07.2019 13:00:00 30,0 17,2 22 12 - - S 1010,4 16 -
16.07.2019 12:00:00 28,3 18,3 22 12 - - S 1011,2 16 -
16.07.2019 11:00:00 26,7 17,8 21 11 - - S 1012,1 16 -
16.07.2019 10:00:00 24,4 16,7 8 4 - - - 1012,6 16 -
16.07.2019 09:00:00 22,2 15,0 5 3 - - ENE 1013,4 16 -
16.07.2019 08:00:00 19,4 15,0 0 0 - - N 1013,4 16 -
16.07.2019 07:00:00 16,7 14,4 5 3 - - W 1013,6 16 -
16.07.2019 06:00:00 14,4 13,3 0 0 - - N 1013,2 16 -
16.07.2019 05:00:00 15,0 13,3 9 5 - - S 1013,9 16 -
16.07.2019 04:00:00 16,1 13,9 11 6 - - WSW 1014,4 16 -
16.07.2019 03:00:00 16,7 13,9 0 0 - - N 1014,3 16 -
16.07.2019 02:00:00 19,4 13,9 5 3 - - - 1014,0 16 -
16.07.2019 01:00:00 17,2 14,4 9 5 - - NNE 1014,7 16 0,0
16.07.2019 00:00:00 17,8 14,4 5 3 - - - 1013,7 16 0,0
15.07.2019 23:00:00 17,8 15,6 8 4 - - S 1014,6 16 -
15.07.2019 22:00:00 18,3 15,0 16 9 - - N 1014,7 16 -
15.07.2019 21:00:00 21,1 13,9 9 5 - - SE 1014,1 16 -
15.07.2019 20:00:00 26,7 11,7 42 23 55 30 SSW 1012,5 16 0,0
15.07.2019 19:00:00 27,8 19,4 5 3 - - NNW 1012,0 16 -
15.07.2019 18:00:00 29,4 19,4 0 0 - - N 1011,8 16 -
15.07.2019 17:00:00 30,6 18,9 0 0 - - N 1011,2 16 -
15.07.2019 16:00:00 29,4 18,9 11 6 - - SSE 1011,9 16 -
15.07.2019 15:00:00 28,9 18,3 11 6 - - SE 1012,7 16 -
15.07.2019 14:00:00 28,3 18,3 18 10 - - E 1013,3 16 -
15.07.2019 13:00:00 29,4 17,2 15 8 - - NE 1014,7 16 -
15.07.2019 12:00:00 27,2 16,7 13 7 - - NW 1015,7 16 -
15.07.2019 11:00:00 25,0 16,7 18 10 - - NNW 1016,5 16 -
15.07.2019 10:00:00 25,6 17,8 11 6 - - N 1015,4 16 -
15.07.2019 09:00:00 22,2 17,2 13 7 - - E 1015,1 16 -
15.07.2019 08:00:00 20,6 17,2 18 10 - - NNE 1015,4 16 -
15.07.2019 07:00:00 19,4 16,7 9 5 - - NE 1013,4 16 -
15.07.2019 06:00:00 16,1 14,4 9 5 - - - 1012,7 16 -
15.07.2019 05:00:00 17,8 15,0 5 3 - - S 1011,8 16 -
15.07.2019 04:00:00 19,4 16,1 9 5 - - NW 1011,8 16 -
15.07.2019 03:00:00 18,9 13,9 9 5 - - WNW 1011,8 16 -
15.07.2019 02:00:00 18,9 15,0 0 0 - - N 1012,0 16 -
15.07.2019 01:00:00 21,7 13,9 13 7 - - WSW 1011,9 16 -
15.07.2019 00:00:00 23,9 14,4 11 6 - - SW 1012,2 16 -
14.07.2019 23:00:00 22,2 17,2 11 6 - - NNW 1012,2 16 -
14.07.2019 22:00:00 23,9 18,9 22 12 - - SW 1012,5 16 -
14.07.2019 21:00:00 25,0 17,8 5 3 - - ENE 1011,2 16 -
14.07.2019 20:00:00 27,2 18,3 18 10 - - NNE 1011,7 16 -
14.07.2019 19:00:00 31,7 20,6 11 6 - - NNE 1011,2 16 -
14.07.2019 18:00:00 33,9 17,8 9 5 - - NNE 1010,6 16 -
14.07.2019 17:00:00 34,4 17,2 5 3 - - NNW 1010,7 16 -
14.07.2019 16:00:00 32,2 19,4 5 3 - - NW 1011,5 16 -
14.07.2019 15:00:00 33,9 18,3 9 5 - - W 1011,5 16 -
14.07.2019 14:00:00 31,7 19,4 11 6 - - WSW 1012,1 16 -
14.07.2019 13:00:00 31,7 18,9 15 8 - - W 1012,4 16 -
14.07.2019 12:00:00 31,1 19,4 9 5 - - - 1012,8 16 -
14.07.2019 11:00:00 30,0 18,9 9 5 - - - 1013,2 16 -
14.07.2019 10:00:00 28,3 20,6 8 4 - - NE 1013,7 16 -
14.07.2019 09:00:00 26,7 20,6 9 5 - - NE 1014,1 16 -
14.07.2019 08:00:00 23,9 20,0 16 9 - - E 1014,2 16 -
14.07.2019 07:00:00 21,7 19,4 11 6 - - ENE 1014,6 16 -
14.07.2019 06:00:00 20,0 18,9 13 7 - - N 1014,6 15 -
14.07.2019 05:00:00 20,0 18,3 16 9 - - NNW 1012,6 16 -
14.07.2019 04:00:00 19,4 18,3 8 4 - - WSW 1011,9 16 -
14.07.2019 03:00:00 21,1 18,9 0 0 - - N 1012,2 16 -
14.07.2019 02:00:00 22,2 19,4 0 0 - - N 1012,6 16 -
14.07.2019 01:00:00 25,6 19,4 5 3 - - SE 1012,5 16 -
14.07.2019 00:00:00 26,1 19,4 8 4 - - ENE 1012,7 16 -
13.07.2019 23:00:00 23,9 17,8 5 3 - - NNE 1013,5 16 -
13.07.2019 22:00:00 22,8 18,3 5 3 - - E 1013,8 16 -
13.07.2019 21:00:00 25,0 18,3 9 5 - - SE 1013,0 16 -
13.07.2019 20:00:00 27,8 19,4 11 6 - - E 1012,9 16 -
13.07.2019 19:00:00 30,6 18,3 11 6 - - E 1012,7 16 -
13.07.2019 18:00:00 32,2 17,8 15 8 - - E 1012,7 16 -
13.07.2019 17:00:00 32,2 18,9 11 6 - - ENE 1013,5 16 -
13.07.2019 16:00:00 32,8 18,9 16 9 - - NE 1013,6 16 -
13.07.2019 15:00:00 32,2 18,3 15 8 - - NE 1014,1 16 -
13.07.2019 14:00:00 31,7 17,8 18 10 - - ENE 1014,3 16 -
13.07.2019 13:00:00 31,1 17,8 16 9 - - ENE 1014,7 16 -
13.07.2019 12:00:00 30,0 16,7 18 10 - - NE 1014,6 16 -
13.07.2019 11:00:00 28,9 15,6 13 7 - - ENE 1015,1 16 -
13.07.2019 10:00:00 26,7 13,9 9 5 - - SE 1015,6 16 -
13.07.2019 09:00:00 25,6 14,4 11 6 - - ESE 1015,9 16 -
13.07.2019 08:00:00 23,3 16,1 8 4 - - WSW 1016,2 16 -
13.07.2019 07:00:00 21,7 16,1 5 3 - - SW 1015,6 16 -
13.07.2019 06:00:00 19,4 15,6 9 5 - - WSW 1015,8 16 -
13.07.2019 05:00:00 18,9 15,6 13 7 - - SE 1013,9 16 -
13.07.2019 04:00:00 18,9 15,0 13 7 - - WNW 1013,4 16 -
13.07.2019 03:00:00 20,6 15,0 16 9 - - N 1012,7 16 -
13.07.2019 02:00:00 22,2 15,0 16 9 - - S 1013,1 16 -
13.07.2019 01:00:00 20,6 15,0 16 9 - - WSW 1014,1 16 -
13.07.2019 00:00:00 23,3 15,6 11 6 - - SSW 1014,2 16 -
12.07.2019 23:00:00 23,9 18,9 - - - - - 1014,8 16 -
12.07.2019 22:00:00 22,8 18,3 8 4 - - SW 1013,3 16 -
12.07.2019 21:00:00 24,4 18,9 0 0 - - N 1012,7 16 -
12.07.2019 20:00:00 26,7 19,4 8 4 - - SE 1013,1 16 -
12.07.2019 19:00:00 31,1 17,8 11 6 - - SE 1012,5 16 -
12.07.2019 18:00:00 30,6 16,7 11 6 - - ESE 1012,3 16 -
12.07.2019 17:00:00 32,2 16,1 13 7 - - E 1012,7 16 -
12.07.2019 16:00:00 31,7 15,6 11 6 - - SE 1013,4 16 -
12.07.2019 15:00:00 31,7 15,6 15 8 - - ESE 1014,1 16 -
12.07.2019 14:00:00 31,1 15,0 15 8 - - E 1014,6 16 -
12.07.2019 13:00:00 30,6 15,0 15 8 - - SE 1014,9 16 -
12.07.2019 12:00:00 29,4 16,7 8 4 - - - 1015,3 16 -
12.07.2019 11:00:00 27,2 15,6 0 0 - - N 1015,5 16 -
12.07.2019 10:00:00 26,1 15,0 11 6 - - WSW 1015,6 16 -
12.07.2019 09:00:00 25,0 15,6 8 4 - - NW 1015,7 16 -
12.07.2019 08:00:00 21,7 17,2 9 5 - - N 1014,3 16 -
12.07.2019 07:00:00 21,7 17,8 0 0 - - N 1014,2 16 -
12.07.2019 06:00:00 20,0 17,2 5 3 - - ENE 1014,1 16 -
12.07.2019 05:00:00 19,4 17,8 13 7 - - E 1013,6 16 -
12.07.2019 04:00:00 17,2 16,1 9 5 - - ENE 1012,8 16 -
12.07.2019 03:00:00 15,6 14,4 16 9 - - N 1012,5 11 -
12.07.2019 02:00:00 16,1 15,0 5 3 - - NW 1011,9 16 -
12.07.2019 01:00:00 17,8 16,1 0 0 - - N 1011,9 16 -
12.07.2019 00:00:00 18,9 16,7 9 5 - - SW 1012,1 16 -
11.07.2019 23:00:00 19,4 17,2 0 0 - - N 1012,0 16 -
11.07.2019 22:00:00 22,2 18,3 9 5 - - S 1012,0 16 -
11.07.2019 21:00:00 24,4 19,4 9 5 - - SE 1011,5 16 -
11.07.2019 20:00:00 30,6 21,1 5 3 - - ESE 1011,0 16 -
11.07.2019 19:00:00 33,3 22,2 0 0 - - N 1010,8 16 -
11.07.2019 18:00:00 34,4 21,1 0 0 - - N 1011,4 16 -
11.07.2019 17:00:00 35,6 18,3 9 5 - - NNW 1011,5 16 -
11.07.2019 16:00:00 35,6 16,1 0 0 - - N 1011,5 16 -
11.07.2019 15:00:00 34,4 15,6 0 0 - - N 1012,2 16 -
11.07.2019 14:00:00 33,3 16,7 9 5 - - WSW 1013,2 16 -
11.07.2019 13:00:00 32,2 17,8 8 4 - - SW 1014,2 16 -
11.07.2019 12:00:00 30,6 17,8 11 6 - - S 1014,7 16 -
11.07.2019 11:00:00 29,4 16,7 13 7 - - SSW 1015,3 16 -
11.07.2019 10:00:00 26,7 15,0 0 0 - - N 1016,2 16 -
11.07.2019 09:00:00 24,4 14,4 13 7 - - SSW 1016,9 16 -
11.07.2019 08:00:00 22,8 13,3 8 4 - - S 1017,1 16 -
11.07.2019 07:00:00 21,1 11,7 0 0 - - N 1017,2 16 -
11.07.2019 06:00:00 16,1 10,6 0 0 - - N 1018,2 16 -
11.07.2019 05:00:00 16,7 10,6 0 0 - - N 1018,3 16 -
11.07.2019 04:00:00 17,2 10,6 8 4 - - S 1018,8 16 -
11.07.2019 03:00:00 18,9 10,6 13 7 - - S 1019,4 16 -
11.07.2019 02:00:00 16,7 10,6 5 3 - - - 1020,5 16 -
11.07.2019 01:00:00 13,9 11,1 5 3 - - W 1021,4 16 -
11.07.2019 00:00:00 16,1 11,1 5 3 - - S 1021,3 16 -
10.07.2019 23:00:00 16,7 11,1 0 0 - - N 1021,6 16 -

tt = temperature
td = dewpoint
ff = wind speed
fx = gusts
dd = wind direction
ppp = reduced air pressure
vv = visibility
rr = precipitation

Next stations